Weather History for McCall, ID

Change the Weather History Date:

Thursday, June 13, 2013

  Actual Average Record
Temperature  
Mean Temperature 50 °F 52 °F  
Max Temperature 59 °F 67 °F 89 °F (1940)
Min Temperature 40 °F 37 °F 27 °F (1952)
Degree Days  
Heating Degree Days 15 13  
Month to date heating degree days 108 187  
Since 1 June heating degree days 108 187  
Since 1 July heating degree days 8483 9416  
Cooling Degree Days 0 0  
Month to date cooling degree days 0 0  
Year to date cooling degree days 0 0  
Since 1 June cooling degree days 0 0  
Moisture  
Dew Point 35 °F    
Average Humidity 59    
Maximum Humidity 83    
Minimum Humidity 35    
Precipitation  
Precipitation 0.13 in 0.07 in 0.79 in (1992)
Month to date precipitation 0.16 0.99  
Year to date precipitation 9.47 10.77  
Sea Level Pressure  
Sea Level Pressure 30.00 in    
Wind  
Wind Speed 6 mph (WNW)    
Max Wind Speed 21 mph    
Max Gust Speed 26 mph    
Visibility 10 miles    
Events Rain , Thunderstorm    
T = Trace of Precipitation, MM = Missing Value Source: NWS Daily Summary

Daily Weather History Graph

Daily Weather History Graph

Search for Another Location

Airport:

Trip Planner

Search our weather history database for the weather conditions in past years. The results will help you decide how hot, cold, wet, or windy it might be!

Date:

Astronomy

Jun. 13, 2013 Rise Set
Actual Time 5:57 AM MDT 9:31 PM MDT
Civil Twilight 5:20 AM MDT 10:08 PM MDT
Nautical Twilight 4:31 AM MDT 10:58 PM MDT
Astronomical Twilight 3:26 AM MDT 12:03 AM MDT
Moon 10:48 AM MDT (6/13) 12:00 AM MDT (6/13)
Length of Visible Light 16h 48m
Length of Day
15h 34m
Waxing Crescent, 22% of the Moon is Illuminated
Jun 13
Waxing Crescent
Jun 16
First Quarter
Jun 23
Full
Jun 29
Last Quarter
Jul 8
New

Hourly Weather History & Observations

Time (MDT) Temp. Windchill Dew Point Humidity Pressure Visibility Wind Dir Wind Speed Gust Speed Precip Events Conditions
12:51 AM 51.1 °F - 37.0 °F 59% 29.92 in 10.0 mi West 8.1 mph - N/A   Overcast
1:51 AM 48.9 °F - 37.0 °F 64% 29.94 in 10.0 mi NW 4.6 mph - N/A   Overcast
2:51 AM 48.0 °F - 37.0 °F 66% 29.93 in 10.0 mi WNW 13.8 mph 18.4 mph N/A   Overcast
3:51 AM 44.1 °F 39.0 °F 37.0 °F 76% 29.98 in 5.0 mi NNW 9.2 mph - 0.03 in Rain Heavy Rain
4:51 AM 44.1 °F 40.8 °F 39.0 °F 82% 29.96 in 10.0 mi NE 5.8 mph - 0.02 in   Overcast
5:51 AM 44.1 °F 39.5 °F 39.0 °F 82% 29.96 in 10.0 mi NNE 8.1 mph - 0.00 in   Overcast
6:51 AM 44.1 °F 41.5 °F 39.0 °F 82% 29.93 in 10.0 mi North 4.6 mph - N/A   Overcast
7:51 AM 45.0 °F - 37.9 °F 76% 29.95 in 10.0 mi Calm Calm - N/A   Overcast
8:51 AM 48.9 °F - 37.9 °F 66% 29.95 in 10.0 mi North 4.6 mph - N/A   Overcast
9:51 AM 50.0 °F - 37.0 °F 61% 29.98 in 10.0 mi Variable 3.5 mph - N/A   Mostly Cloudy
10:51 AM 52.0 °F - 36.0 °F 54% 29.96 in 10.0 mi Calm Calm - N/A   Partly Cloudy
11:51 AM 54.0 °F - 34.0 °F 47% 29.97 in 10.0 mi Calm Calm - N/A   Mostly Cloudy
12:51 PM 53.1 °F - 39.0 °F 59% 29.98 in 10.0 mi Variable 3.5 mph - 0.00 in Rain Light Rain
1:51 PM 55.9 °F - 36.0 °F 47% 29.97 in 10.0 mi Variable 4.6 mph - 0.00 in   Partly Cloudy
2:51 PM 55.0 °F - 33.1 °F 43% 29.99 in 10.0 mi West 13.8 mph 23.0 mph N/A   Overcast
3:51 PM 55.0 °F - 32.0 °F 42% 29.99 in 10.0 mi West 10.4 mph 18.4 mph N/A   Scattered Clouds
4:51 PM 55.9 °F - 33.1 °F 42% 30.00 in 10.0 mi Variable 5.8 mph - N/A   Mostly Cloudy
5:51 PM 57.0 °F - 30.0 °F 36% 29.99 in 10.0 mi West 9.2 mph - 0.00 in   Overcast
6:51 PM 55.9 °F - 28.0 °F 34% 29.99 in 10.0 mi West 8.1 mph - N/A   Scattered Clouds
7:51 PM 54.0 °F - 30.9 °F 41% 29.98 in 10.0 mi Variable 3.5 mph - N/A   Overcast
8:22 PM 53.6 °F - 28.4 °F 38% 30.04 in 10.0 mi West 5.8 mph - N/A Thunderstorm Overcast
8:47 PM 46.4 °F 39.2 °F 35.6 °F 66% 30.09 in 10.0 mi WSW 18.4 mph 26.5 mph 0.00 in Rain Light Rain
8:51 PM 45.0 °F 38.2 °F 35.1 °F 68% 30.07 in 9.0 mi WSW 15.0 mph 26.5 mph 0.00 in Rain , Thunderstorm Light Thunderstorms and Rain
9:10 PM 42.8 °F 37.5 °F 35.6 °F 76% 30.10 in 9.0 mi WSW 9.2 mph 18.4 mph 0.06 in Rain Light Rain
9:33 PM 42.8 °F 38.6 °F 35.6 °F 76% 30.09 in 10.0 mi Variable 6.9 mph - 0.08 in Rain Light Rain
9:51 PM 44.1 °F 40.8 °F 37.0 °F 76% 30.07 in 10.0 mi ENE 5.8 mph - 0.08 in   Overcast
10:51 PM 43.0 °F - 37.0 °F 80% 30.07 in 10.0 mi Calm Calm - N/A   Mostly Cloudy
11:51 PM 42.1 °F 40.2 °F 37.0 °F 82% 30.07 in 10.0 mi NW 3.5 mph - N/A   Partly Cloudy